CW5988 Weather Reports


time (UTC)temp
F
wind
direction
speed
knots
gust
knots
rain 1hr
in
rain 24hr
in
rain mn
in
humidity
%
barometer
mb
20260902021936 64 261 3.5 7.0 0.00 0.00 0.00 80 1016.4
20260902021452 64 200 4.3 9.6 0.00 0.00 0.00 80 1016.4
20260902020937 64 204 6.1 9.6 0.00 0.00 0.00 79 1016.2
20260902020421 64 235 4.3 8.7 0.00 0.00 0.00 79 1016.3
20260902015942 64 200 3.5 7.8 0.00 0.00 0.00 78 1016.3
20260902015457 64 251 4.3 7.8 0.00 0.00 0.00 78 1016.3
20260902014938 64 237 2.6 7.0 0.00 0.00 0.00 77 1016.3
20260902014452 64 252 3.5 8.7 0.00 0.00 0.00 76 1016.3
20260902013936 64 227 5.2 9.6 0.00 0.00 0.00 75 1016.3
20260902013440 64 222 4.3 10.4 0.00 0.00 0.00 75 1016.3
20260902012959 65 229 7.0 12.2 0.00 0.00 0.00 74 1016.3
20260902012422 65 221 5.2 13.0 0.00 0.00 0.00 74 1016.2
20260902011927 65 217 6.1 13.0 0.00 0.00 0.00 74 1016.1
20260902011433 65 211 7.0 12.2 0.00 0.00 0.00 73 1016.1
20260902010940 65 228 6.1 11.3 0.00 0.00 0.00 74 1016.1
20260902010435 65 221 7.8 11.3 0.00 0.00 0.00 74 1016.1
20260902005920 65 268 4.3 15.6 0.00 0.00 0.00 74 1016.1
20260902005420 65 212 7.8 15.6 0.00 0.00 0.00 73 1016.1
20260902004925 65 258 7.0 13.0 0.00 0.00 0.00 73 1016.2
20260902004428 66 236 5.2 11.3 0.00 0.00 0.00 73 1016.1
20260902003934 66 181 5.2 13.0 0.00 0.00 0.00 73 1016.0
20260902003435 66 205 5.2 13.0 0.00 0.00 0.00 73 1016.0
20260902002918 66 240 6.1 14.8 0.00 0.00 0.00 73 1016.0
20260902002442 66 198 6.1 14.8 0.00 0.00 0.00 73 1016.0
20260902001925 66 215 7.0 12.2 0.00 0.00 0.00 72 1016.0
20260902001455 66 221 7.8 12.2 0.00 0.00 0.00 71 1016.1
20260902000946 66 249 7.0 13.0 0.00 0.00 0.00 72 1016.1
20260902000429 66 241 7.8 13.9 0.00 0.00 0.00 72 1016.1
20260901235931 66 217 6.1 14.8 0.00 0.00 0.00 72 1016.1
20260901235438 66 225 7.8 15.6 0.00 0.00 0.00 72 1016.1
20260901234936 65 251 7.8 15.6 0.00 0.00 0.00 72 1016.2
20260901234419 66 202 5.2 13.9 0.00 0.00 0.00 73 1016.1
20260901233924 66 215 6.1 13.0 0.00 0.00 0.00 73 1016.2
20260901233429 66 225 7.8 13.0 0.00 0.00 0.00 73 1016.2
20260901232934 66 246 4.3 15.6 0.00 0.00 0.00 73 1016.2
20260901232420 67 226 7.0 12.2 0.00 0.00 0.00 73 1016.3
20260901231923 66 268 4.3 13.0 0.00 0.00 0.00 73 1016.3
20260901231423 66 219 7.0 13.0 0.00 0.00 0.00 73 1016.4
20260901230931 67 224 7.0 13.0 0.00 0.00 0.00 73 1016.4
20260901230434 66 223 7.0 14.8 0.00 0.00 0.00 73 1016.4
20260901225918 66 251 8.7 14.8 0.00 0.00 0.00 72 1016.5
20260901225444 66 209 8.7 15.6 0.00 0.00 0.00 72 1016.5
20260901224955 67 240 6.1 15.6 0.00 0.00 0.00 72 1016.6
20260901224419 67 334 5.2 11.3 0.00 0.00 0.00 71 1016.5
20260901223921 68 209 6.1 11.3 0.00 0.00 0.00 71 1016.6
20260901223424 68 227 5.2 12.2 0.00 0.00 0.00 72 1016.6
20260901222927 67 275 7.0 13.9 0.00 0.00 0.00 72 1016.6
20260901222433 67 237 5.2 13.9 0.00 0.00 0.00 72 1016.5
20260901221936 67 283 7.0 14.8 0.00 0.00 0.00 72 1016.6
20260901221420 67 220 8.7 14.8 0.00 0.00 0.00 72 1016.6
20260901220926 67 227 5.2 13.9 0.00 0.00 0.00 72 1016.6
20260901220454 67 214 9.6 13.9 0.00 0.00 0.00 72 1016.6
20260901215937 67 268 6.1 12.2 0.00 0.00 0.00 72 1016.6
20260901215441 67 294 7.8 12.2 0.00 0.00 0.00 72 1016.5
20260901214952 68 295 7.8 13.9 0.00 0.00 0.00 71 1016.5
20260901214437 68 242 6.1 13.9 0.00 0.00 0.00 70 1016.5
20260901213940 68 271 5.2 12.2 0.00 0.00 0.00 70 1016.5
20260901213438 68 231 7.0 12.2 0.00 0.00 0.00 70 1016.5
20260901212951 68 263 6.1 12.2 0.00 0.00 0.00 70 1016.6
20260901212433 68 296 6.1 13.0 0.00 0.00 0.00 71 1016.6
20260901211918 67 237 5.2 13.0 0.00 0.00 0.00 72 1016.5
20260901211442 67 226 4.3 10.4 0.00 0.00 0.00 71 1016.6
20260901210925 67 235 4.3 10.4 0.00 0.00 0.00 71 1016.6
20260901210425 67 271 5.2 12.2 0.00 0.00 0.00 70 1016.5
20260901205930 67 322 6.1 12.2 0.00 0.00 0.00 71 1016.4
20260901205435 67 271 6.1 12.2 0.00 0.00 0.00 71 1016.4
20260901204948 67 275 6.1 11.3 0.00 0.00 0.00 70 1016.5
20260901204434 67 281 5.2 12.2 0.00 0.00 0.00 70 1016.5
20260901203918 67 252 7.0 12.2 0.00 0.00 0.00 70 1016.6
20260901203423 66 247 5.2 10.4 0.00 0.00 0.00 71 1016.5
20260901202921 66 261 6.1 10.4 0.00 0.00 0.00 71 1016.5
20260901202426 67 239 5.2 11.3 0.00 0.00 0.00 70 1016.6
20260901201931 67 220 5.2 12.2 0.00 0.00 0.00 71 1016.6
20260901201436 67 273 6.1 12.2 0.00 0.00 0.00 73 1016.6
20260901200921 66 273 6.1 11.3 0.00 0.00 0.00 72 1016.6
20260901200428 67 230 7.0 12.2 0.00 0.00 0.00 72 1016.6
20260901195929 66 234 5.2 13.0 0.00 0.00 0.00 71 1016.6
20260901195432 66 196 6.1 13.0 0.00 0.00 0.00 70 1016.6
20260901194935 66 207 6.1 13.9 0.00 0.00 0.00 70 1016.6
20260901194420 66 212 7.0 13.0 0.00 0.00 0.00 71 1016.7
20260901193952 66 209 6.1 13.0 0.00 0.00 0.00 72 1016.7
20260901193438 66 233 7.8 13.0 0.00 0.00 0.00 72 1016.6
20260901192919 66 238 6.1 12.2 0.00 0.00 0.00 73 1016.8
20260901192422 66 282 5.2 12.2 0.00 0.00 0.00 72 1016.8
20260901191921 66 222 4.3 12.2 0.00 0.00 0.00 73 1016.9
20260901191427 66 238 6.1 12.2 0.00 0.00 0.00 73 1016.8
20260901190932 66 211 5.2 12.2 0.00 0.00 0.00 74 1016.9
20260901190427 65 222 8.7 12.2 0.00 0.00 0.00 73 1016.7
20260901185922 65 259 5.2 12.2 0.00 0.00 0.00 73 1016.8
20260901185426 66 230 6.1 12.2 0.00 0.00 0.00 74 1016.9
20260901184932 65 222 7.0 13.9 0.00 0.00 0.00 74 1016.8
20260901184433 66 189 6.1 9.6 0.00 0.00 0.00 74 1016.8
20260901183928 66 264 4.3 10.4 0.00 0.00 0.00 74 1016.8
20260901183430 65 221 6.1 10.4 0.00 0.00 0.00 74 1016.8
20260901182934 65 299 3.5 8.7 0.00 0.00 0.00 74 1016.8
20260901182419 65 257 4.3 8.7 0.00 0.00 0.00 74 1016.8
20260901181924 65 249 3.5 8.7 0.00 0.00 0.00 75 1016.8
20260901181428 65 222 6.1 8.7 0.00 0.00 0.00 74 1016.7
20260901180929 65 207 4.3 8.7 0.00 0.00 0.00 73 1016.8
20260901180435 65 213 4.3 8.7 0.00 0.00 0.00 74 1016.7
20260901175947 65 227 5.2 8.7 0.00 0.00 0.00 75 1016.7
20260901175430 65 214 1.7 8.7 0.00 0.00 0.00 77 1016.8
20260901174931 64 183 3.5 8.7 0.00 0.00 0.00 77 1016.7
20260901174435 64 231 4.3 10.4 0.00 0.00 0.00 76 1016.7
20260901173937 65 203 4.3 7.8 0.00 0.00 0.00 77 1016.6
20260901173447 64 183 4.3 9.6 0.00 0.00 0.00 77 1016.5
20260901172929 64 212 5.2 9.6 0.00 0.00 0.00 77 1016.5
20260901172433 64 196 3.5 9.6 0.00 0.00 0.00 77 1016.5
20260901171938 64 215 4.3 8.7 0.00 0.00 0.00 78 1016.5
20260901171438 64 244 2.6 10.4 0.00 0.00 0.00 78 1016.4
20260901170918 64 222 4.3 7.0 0.00 0.00 0.00 78 1016.4
20260901170433 64 194 3.5 9.6 0.00 0.00 0.00 78 1016.4
20260901165935 64 196 5.2 9.6 0.00 0.00 0.00 78 1016.4
20260901165437 64 254 3.5 9.6 0.00 0.00 0.00 78 1016.3
20260901164919 64 284 5.2 7.8 0.00 0.00 0.00 79 1016.2
20260901164423 64 268 2.6 9.6 0.00 0.00 0.00 79 1016.2
20260901163925 63 286 5.2 9.6 0.00 0.00 0.00 79 1016.2
20260901163427 63 360 4.3 7.8 0.00 0.00 0.00 80 1016.2
20260901162926 63 283 3.5 7.0 0.00 0.00 0.00 80 1016.1
20260901162430 63 214 5.2 7.0 0.00 0.00 0.00 81 1016.1
20260901161935 63 225 3.5 8.7 0.00 0.00 0.00 81 1016.1
20260901161437 63 256 6.1 8.7 0.00 0.00 0.00 81 1016.1
20260901160951 62 273 4.3 9.6 0.00 0.00 0.00 82 1016.1
20260901160434 62 280 5.2 10.4 0.00 0.00 0.00 82 1016.1
20260901155917 62 188 6.1 10.4 0.00 0.00 0.00 82 1016.2
20260901155418 62 244 3.5 7.0 0.00 0.00 0.00 82 1016.1
20260901154921 62 268 3.5 7.0 0.00 0.00 0.00 82 1016.1
20260901154456 62 271 2.6 8.7 0.00 0.00 0.00 83 1016.0
20260901153918 62 235 3.5 8.7 0.00 0.00 0.00 83 1015.9
20260901153442 62 313 4.3 9.6 0.00 0.00 0.00 83 1015.8
20260901152955 62 217 5.2 15.6 0.00 0.00 0.00 83 1015.8
20260901152435 62 220 5.2 10.4 0.00 0.00 0.00 83 1015.6
20260901151938 62 212 2.6 8.7 0.00 0.00 0.00 84 1015.6
20260901151453 62 263 4.3 8.7 0.00 0.00 0.00 84 1015.6
20260901150919 62 196 3.5 10.4 0.00 0.00 0.00 84 1015.4
20260901150421 62 218 2.6 10.4 0.00 0.00 0.00 84 1015.5
20260901145924 61 188 4.3 8.7 0.00 0.00 0.00 84 1015.4
20260901145429 61 208 4.3 8.7 0.00 0.00 0.00 84 1015.3
20260901144926 61 217 3.5 8.7 0.00 0.00 0.00 84 1015.2
20260901144431 61 292 3.5 8.7 0.00 0.00 0.00 84 1015.1
20260901143934 61 230 2.6 9.6 0.00 0.00 0.00 84 1015.2
20260901143445 61 247 5.2 9.6 0.00 0.00 0.00 84 1015.0
20260901142946 61 268 3.5 11.3 0.00 0.00 0.00 84 1015.0
20260901142424 61 237 4.3 7.8 0.00 0.00 0.00 84 1014.9
20260901141918 61 203 2.6 7.8 0.00 0.00 0.00 85 1014.9
20260901141422 61 256 3.5 7.8 0.00 0.00 0.00 85 1014.7
20260901140925 61 211 3.5 7.8 0.00 0.00 0.00 84 1014.6
20260901140428 61 213 4.3 9.6 0.00 0.00 0.00 85 1014.6
20260901135932 61 198 5.2 9.6 0.00 0.00 0.00 85 1014.6
20260901135437 61 258 4.3 9.6 0.00 0.00 0.00 85 1014.5
20260901134922 61 261 3.5 7.8 0.00 0.00 0.00 85 1014.4
20260901134422 61 251 4.3 7.0 0.00 0.00 0.00 85 1014.4
20260901133957 61 222 3.5 8.7 0.00 0.00 0.00 85 1014.4
20260901133439 61 222 2.6 8.7 0.00 0.00 0.00 85 1014.3
20260901132920 61 244 3.5 7.0 0.00 0.00 0.00 84 1014.3
20260901132445 61 261 2.6 6.1 0.00 0.00 0.00 84 1014.2
20260901131921 61 284 2.6 9.6 0.00 0.00 0.00 84 1014.1
20260901131420 61 242 3.5 9.6 0.00 0.00 0.00 84 1014.2
20260901130924 61 277 3.5 9.6 0.00 0.00 0.00 84 1014.1
20260901130431 61 213 5.2 7.8 0.00 0.00 0.00 84 1014.0
20260901125933 61 45 2.6 7.0 0.00 0.00 0.00 84 1014.1
20260901125420 61 239 3.5 7.0 0.00 0.00 0.00 84 1014.0
20260901124922 61 208 1.7 8.7 0.00 0.00 0.00 83 1013.9
20260901124428 61 230 4.3 8.7 0.00 0.00 0.00 83 1014.0
20260901123929 61 207 2.6 7.0 0.00 0.00 0.00 83 1014.0
20260901123433 61 215 3.5 7.0 0.00 0.00 0.00 83 1014.0
20260901122935 61 215 3.5 9.6 0.00 0.00 0.00 83 1014.0
20260901122420 61 226 3.5 9.6 0.00 0.00 0.00 83 1014.0
20260901121926 61 219 4.3 9.6 0.00 0.00 0.00 83 1013.9
20260901121433 61 228 3.5 8.7 0.00 0.00 0.00 83 1013.8
20260901120919 61 206 4.3 7.8 0.00 0.00 0.00 82 1013.7
20260901120424 61 261 2.6 8.7 0.00 0.00 0.00 82 1013.7
20260901115946 61 171 3.5 7.0 0.00 0.00 0.00 82 1013.8
20260901115431 61 203 2.6 7.0 0.00 0.00 0.00 82 1013.9
20260901114934 61 218 3.5 7.8 0.00 0.00 0.00 82 1013.9
20260901114420 61 268 3.5 7.8 0.00 0.00 0.00 82 1013.9
20260901113924 61 292 4.3 6.1 0.00 0.00 0.00 82 1013.8
20260901113426 61 227 2.6 5.2 0.00 0.00 0.00 82 1013.8
20260901112926 61 268 3.5 7.8 0.00 0.00 0.00 82 1013.9
20260901112432 61 242 4.3 7.8 0.00 0.00 0.00 82 1014.0
20260901111935 61 247 3.5 9.6 0.00 0.00 0.00 82 1014.0
20260901111420 61 163 7.0 9.6 0.00 0.00 0.00 82 1014.0
20260901110945 61 222 2.6 7.8 0.00 0.00 0.00 82 1014.0
20260901110427 61 249 5.2 8.7 0.00 0.00 0.00 81 1014.0
20260901105955 61 222 5.2 8.7 0.00 0.00 0.00 81 1014.0
20260901105419 61 276 4.3 8.7 0.00 0.00 0.00 81 1014.0
20260901104923 61 301 2.6 8.7 0.00 0.00 0.00 81 1014.0
20260901104455 61 216 3.5 8.7 0.00 0.00 0.00 81 1014.0
20260901103920 61 285 4.3 9.6 0.00 0.00 0.00 81 1014.0
20260901103425 61 215 4.3 9.6 0.00 0.00 0.00 81 1013.9
20260901102959 61 219 2.6 8.7 0.00 0.00 0.00 81 1014.0
20260901102438 61 213 4.3 10.4 0.00 0.00 0.00 81 1013.9
20260901101922 61 207 4.3 10.4 0.00 0.00 0.00 81 1013.9
20260901101458 61 187 4.3 8.7 0.00 0.00 0.00 81 1013.8
20260901100942 61 182 4.3 9.6 0.00 0.00 0.00 81 1013.8
20260901100506 61 205 5.2 10.4 0.00 0.00 0.00 81 1013.8
20260901095957 61 217 5.2 10.4 0.00 0.00 0.00 81 1013.8
20260901095437 61 228 5.2 8.7 0.00 0.00 0.00 81 1013.8
20260901094940 61 203 4.3 9.6 0.00 0.00 0.00 81 1013.8
20260901094423 61 203 3.5 8.7 0.00 0.00 0.00 80 1013.8
20260901093931 61 200 3.5 8.7 0.00 0.00 0.00 80 1013.8
20260901093436 61 220 3.5 8.7 0.00 0.00 0.00 80 1013.8
20260901092938 61 230 5.2 8.7 0.00 0.00 0.00 80 1013.8
20260901092430 61 212 2.6 7.8 0.00 0.00 0.00 80 1013.8
20260901091935 61 198 3.5 7.8 0.00 0.00 0.00 80 1013.8
20260901091422 61 238 3.5 8.7 0.00 0.00 0.00 79 1013.8
20260901090955 61 224 4.3 7.8 0.00 0.00 0.00 79 1013.8
20260901090437 61 225 5.2 8.7 0.00 0.00 0.00 79 1013.9
20260901085921 61 239 3.5 8.7 0.00 0.00 0.00 79 1013.8
20260901085448 61 219 4.3 9.6 0.00 0.00 0.00 79 1013.9
20260901084930 61 222 5.2 10.4 0.00 0.00 0.00 79 1013.8
20260901084434 61 207 6.1 10.4 0.00 0.00 0.00 79 1013.8
20260901083949 61 207 5.2 10.4 0.00 0.00 0.00 79 1013.7
20260901083430 61 221 6.1 10.4 0.00 0.00 0.00 79 1013.7
20260901082935 61 195 3.5 7.8 0.00 0.00 0.00 78 1013.9
20260901082421 61 199 4.3 7.8 0.00 0.00 0.00 78 1013.8
20260901081926 61 217 3.5 9.6 0.00 0.00 0.00 78 1013.9
20260901081426 61 226 5.2 10.4 0.00 0.00 0.00 78 1013.8
20260901080933 61 210 5.2 10.4 0.00 0.00 0.00 78 1013.7
20260901080418 61 226 4.3 9.6 0.00 0.00 0.00 78 1013.8
20260901075922 61 222 3.5 7.0 0.00 0.00 0.00 78 1013.8
20260901075427 61 249 4.3 7.0 0.00 0.00 0.00 78 1013.7
20260901074928 61 227 3.5 7.8 0.00 0.00 0.00 78 1013.8
20260901074435 61 249 2.6 9.6 0.00 0.00 0.00 78 1013.9
20260901073935 61 171 4.3 9.6 0.00 0.00 0.00 78 1013.8
20260901073439 61 224 3.5 7.8 0.00 0.00 0.00 79 1013.8
20260901072940 61 206 4.3 8.7 0.00 0.00 0.00 79 1013.8
20260901072424 61 218 3.5 7.0 0.00 0.00 0.00 79 1013.8
20260901071928 61 216 4.3 8.7 0.00 0.00 0.00 79 1013.9
20260901071434 61 196 5.2 9.6 0.00 0.00 0.00 79 1013.7
20260901070918 61 185 4.3 9.6 0.00 0.00 0.00 80 1013.8
20260901070507 61 221 4.3 7.0 0.00 0.00 0.00 80 1013.7
20260901065924 61 177 2.6 8.7 0.00 0.00 0.00 80 1013.8
20260901065430 61 268 5.2 8.7 0.00 0.00 0.00 80 1013.7
20260901064933 61 268 4.3 7.8 0.00 0.00 0.00 79 1013.8
20260901064438 61 243 4.3 7.8 0.00 0.00 0.00 79 1013.8
20260901063953 61 263 3.5 7.8 0.00 0.00 0.00 78 1013.8
20260901063429 62 216 4.3 8.7 0.00 0.00 0.00 78 1013.8
20260901062932 62 88 4.3 8.7 0.00 0.00 0.00 77 1013.9
20260901062417 62 252 3.5 11.3 0.00 0.00 0.00 77 1013.9
20260901061944 62 215 6.1 11.3 0.00 0.00 0.00 77 1013.8
20260901061429 62 268 5.2 12.2 0.00 0.00 0.00 77 1013.9
20260901060933 62 259 5.2 12.2 0.00 0.00 0.00 77 1013.9
20260901060431 62 235 4.3 7.8 0.00 0.00 0.00 77 1014.0
20260901055934 62 230 4.3 12.2 0.00 0.00 0.00 77 1014.0
20260901055419 62 294 5.2 12.2 0.00 0.00 0.00 77 1014.0
20260901054945 62 237 6.1 11.3 0.00 0.00 0.00 77 1014.0
20260901054430 62 207 4.3 9.6 0.00 0.00 0.00 77 1014.0
20260901053937 62 238 4.3 11.3 0.00 0.00 0.00 77 1014.1
20260901053419 61 193 4.3 11.3 0.00 0.00 0.00 77 1014.1
20260901052919 61 275 5.2 11.3 0.00 0.00 0.00 77 1014.1
20260901052445 62 270 5.2 11.3 0.00 0.00 0.00 77 1014.2
20260901051956 62 306 4.3 10.4 0.00 0.00 0.00 77 1014.1
20260901051419 62 272 4.3 7.0 0.00 0.00 0.00 77 1014.2
20260901050925 62 292 3.5 13.9 0.00 0.00 0.00 76 1014.2
20260901050432 62 242 4.3 13.9 0.00 0.00 0.00 76 1014.1
20260901045931 62 288 4.3 8.7 0.00 0.00 0.00 76 1014.1
20260901045436 62 280 4.3 8.7 0.00 0.00 0.00 76 1014.0
20260901044921 62 294 3.5 8.7 0.00 0.00 0.00 76 1014.0
20260901044425 62 238 4.3 8.7 0.00 0.00 0.00 76 1014.0
20260901043932 62 313 3.5 7.0 0.00 0.00 0.00 75 1014.0
20260901043434 62 280 3.5 7.0 0.00 0.00 0.00 75 1013.9
20260901042937 62 249 3.5 9.6 0.00 0.00 0.00 75 1013.9
20260901042419 62 222 6.1 9.6 0.00 0.00 0.00 75 1014.0
20260901041918 62 249 3.5 12.2 0.00 0.00 0.00 75 1014.0
20260901041432 62 280 3.5 9.6 0.00 0.00 0.00 75 1013.9
20260901040947 62 228 2.6 7.0 0.00 0.00 0.00 75 1013.9
20260901040430 62 251 2.6 8.7 0.00 0.00 0.00 75 1013.8
20260901035935 62 308 4.3 8.7 0.00 0.00 0.00 75 1013.8
20260901035418 61 276 4.3 8.7 0.00 0.00 0.00 76 1013.8
20260901034936 62 222 5.2 14.8 0.00 0.00 0.00 76 1013.8
20260901034444 61 261 5.2 14.8 0.00 0.00 0.00 76 1013.7
20260901033956 62 228 5.2 10.4 0.00 0.00 0.00 76 1013.5
20260901033418 61 239 4.3 11.3 0.00 0.00 0.00 76 1013.6
20260901032922 61 295 4.3 11.3 0.00 0.00 0.00 77 1013.5
20260901032441 61 282 4.3 9.6 0.00 0.00 0.00 78 1013.5
20260901031920 61 244 4.3 10.4 0.00 0.00 0.00 78 1013.4
20260901031453 61 248 5.2 10.4 0.00 0.00 0.00 78 1013.4
20260901030917 61 282 3.5 10.4 0.00 0.00 0.00 78 1013.3
20260901030418 61 268 5.2 10.4 0.00 0.00 0.00 78 1013.2
20260901025920 62 263 6.1 11.3 0.00 0.00 0.00 78 1013.2
20260901025445 62 247 5.2 11.3 0.00 0.00 0.00 78 1013.3
20260901024925 62 208 7.0 11.3 0.00 0.00 0.00 76 1013.3
20260901024431 62 249 4.3 11.3 0.00 0.00 0.00 76 1013.3
20260901023936 62 252 2.6 8.7 0.00 0.00 0.00 75 1013.2
20260901023420 62 14 3.5 10.4 0.00 0.00 0.00 75 1013.2
20260901022921 62 313 5.2 12.2 0.00 0.00 0.00 75 1013.3
20260901022449 62 273 4.3 13.9 0.00 0.00 0.00 76 1013.2